• In Germany
  • List of Countries
  • For 7 days
  • Water Temperature
  • Satellite Maps
  • Weather Map
  • Weather Widgets
  • user-avatar
    Login

    Hourly Weather Mazari Sharif

    Today, 17 January, Wednesday

    Time Temperature Precipitation Wind Pressure Humidity
    00:00 -5°C° 0.3 mm 2 mps 655 mmHg 76%
    01:00 -5°C° 0.3 mm 2 mps 655 mmHg 77%
    02:00 -5°C° 0.2 mm 2 mps 655 mmHg 77%
    03:00 -3°C° 0.2 mm 1 mps 655 mmHg 78%
    04:00 -3°C° 0 mm 1 mps 655 mmHg 81%
    05:00 -3°C° 0.1 mm 1 mps 655 mmHg 80%
    06:00 -3°C° 0.1 mm 1 mps 656 mmHg 80%
    07:00 -4°C° 0.1 mm 1 mps 656 mmHg 79%
    08:00 -2°C° 0 mm 1 mps 656 mmHg 74%
    09:00 -3°C° 0 mm 2 mps 656 mmHg 69%
    10:00 -2°C° 0 mm 2 mps 656 mmHg 64%
    11:00 -1°C° 0 mm 3 mps 656 mmHg 62%
    12:00 -1°C° 0 mm 3 mps 656 mmHg 60%
    13:00 0°C° 0 mm 3 mps 656 mmHg 58%
    14:00 0°C° 0 mm 3 mps 655 mmHg 60%
    15:00 0°C° 0 mm 3 mps 655 mmHg 61%
    16:00 0°C° 0 mm 3 mps 655 mmHg 63%
    17:00 -1°C° 0 mm 3 mps 655 mmHg 65%
    18:00 -1°C° 0 mm 3 mps 655 mmHg 68%
    19:00 -2°C° 0 mm 2 mps 656 mmHg 70%
    20:00 -2°C° 0 mm 2 mps 656 mmHg 69%
    21:00 -2°C° 0 mm 2 mps 656 mmHg 67%
    22:00 -2°C° 0 mm 2 mps 656 mmHg 65%
    23:00 -2°C° 0 mm 2 mps 655 mmHg 64%

    Tomorrow, 18 January, Thursday

    Time Temperature Precipitation Wind Pressure Humidity
    00:00 -2°C° 0 mm 2 mps 655 mmHg 62%
    01:00 -2°C° 0 mm 2 mps 655 mmHg 60%
    02:00 -2°C° 0 mm 2 mps 655 mmHg 58%
    03:00 -2°C° 0 mm 2 mps 655 mmHg 55%
    04:00 -1°C° 0 mm 2 mps 655 mmHg 53%
    05:00 -1°C° 0 mm 2 mps 655 mmHg 50%
    06:00 -1°C° 0 mm 3 mps 655 mmHg 48%
    07:00 -1°C° 0 mm 3 mps 655 mmHg 45%
    08:00 +1°C° 0 mm 3 mps 656 mmHg 41%
    09:00 +3°C° 0 mm 3 mps 656 mmHg 37%
    10:00 +5°C° 0 mm 3 mps 657 mmHg 34%
    11:00 +7°C° 0 mm 3 mps 656 mmHg 32%
    12:00 +8°C° 0 mm 3 mps 655 mmHg 31%
    13:00 +8°C° 0 mm 3 mps 655 mmHg 29%
    14:00 +8°C° 0 mm 3 mps 655 mmHg 32%
    15:00 +7°C° 0 mm 3 mps 654 mmHg 34%
    16:00 +6°C° 0 mm 2 mps 654 mmHg 36%
    17:00 +6°C° 0 mm 2 mps 654 mmHg 37%
    18:00 +5°C° 0 mm 2 mps 654 mmHg 38%
    19:00 +5°C° 0 mm 2 mps 654 mmHg 39%
    20:00 +5°C° 0 mm 2 mps 654 mmHg 38%
    21:00 +4°C° 0 mm 3 mps 654 mmHg 37%
    22:00 +4°C° 0 mm 3 mps 654 mmHg 36%
    23:00 +4°C° 0 mm 3 mps 654 mmHg 35%

    Day after tomorrow, 19 January, Friday

    Time Temperature Precipitation Wind Pressure Humidity
    00:00 +4°C° 0 mm 3 mps 654 mmHg 34%
    01:00 +4°C° 0 mm 3 mps 654 mmHg 34%
    02:00 +4°C° 0 mm 3 mps 654 mmHg 33%
    03:00 +4°C° 0 mm 3 mps 654 mmHg 32%
    04:00 +4°C° 0 mm 3 mps 654 mmHg 32%
    05:00 +4°C° 0 mm 3 mps 655 mmHg 31%
    06:00 +3°C° 0 mm 3 mps 655 mmHg 31%
    07:00 +3°C° 0 mm 3 mps 655 mmHg 31%
    08:00 +5°C° 0 mm 3 mps 656 mmHg 29%
    09:00 +8°C° 0 mm 3 mps 657 mmHg 26%
    10:00 +10°C° 0 mm 3 mps 658 mmHg 24%
    11:00 +11°C° 0 mm 3 mps 657 mmHg 23%
    12:00 +12°C° 0 mm 3 mps 657 mmHg 21%
    13:00 +13°C° 0 mm 3 mps 657 mmHg 20%
    14:00 +12°C° 0 mm 3 mps 657 mmHg 22%
    15:00 +12°C° 0 mm 2 mps 657 mmHg 24%
    16:00 +10°C° 0 mm 2 mps 657 mmHg 26%
    17:00 +9°C° 0 mm 3 mps 657 mmHg 28%
    18:00 +8°C° 0 mm 3 mps 657 mmHg 29%
    19:00 +7°C° 0 mm 3 mps 657 mmHg 30%
    20:00 +7°C° 0 mm 3 mps 657 mmHg 30%
    21:00 +7°C° 0 mm 3 mps 657 mmHg 30%
    22:00 +5°C° 0 mm 3 mps 657 mmHg 30%
    23:00 +5°C° 0 mm 3 mps 657 mmHg 30%

    20 January, Saturday

    Time Temperature Precipitation Wind Pressure Humidity
    00:00 +5°C° 0 mm 3 mps 657 mmHg 30%
    01:00 +5°C° 0 mm 3 mps 657 mmHg 30%
    02:00 +4°C° 0 mm 3 mps 656 mmHg 29%
    03:00 +4°C° 0 mm 3 mps 656 mmHg 29%
    04:00 +4°C° 0 mm 3 mps 656 mmHg 28%
    05:00 +4°C° 0 mm 3 mps 656 mmHg 27%
    06:00 +4°C° 0 mm 3 mps 656 mmHg 26%
    07:00 +4°C° 0 mm 3 mps 656 mmHg 25%
    08:00 +7°C° 0 mm 3 mps 656 mmHg 22%
    09:00 +9°C° 0 mm 3 mps 657 mmHg 20%
    10:00 +12°C° 0 mm 2 mps 657 mmHg 18%
    11:00 +13°C° 0 mm 2 mps 657 mmHg 17%
    12:00 +14°C° 0 mm 2 mps 656 mmHg 16%
    13:00 +14°C° 0 mm 3 mps 656 mmHg 14%
    14:00 +14°C° 0 mm 2 mps 655 mmHg 17%
    15:00 +13°C° 0 mm 2 mps 654 mmHg 19%
    16:00 +12°C° 0 mm 2 mps 654 mmHg 22%
    17:00 +10°C° 0 mm 1 mps 654 mmHg 22%
    18:00 +9°C° 0 mm 1 mps 653 mmHg 23%
    19:00 +8°C° 0 mm 1 mps 653 mmHg 23%
    20:00 +8°C° 0 mm 1 mps 653 mmHg 23%
    21:00 +6°C° 0 mm 2 mps 653 mmHg 22%
    22:00 +6°C° 0 mm 2 mps 653 mmHg 22%
    23:00 +6°C° 0 mm 2 mps 653 mmHg 22%

    21 January, Sunday

    Time Temperature Precipitation Wind Pressure Humidity
    00:00 +5°C° 0 mm 2 mps 652 mmHg 22%
    01:00 +5°C° 0 mm 2 mps 652 mmHg 22%
    02:00 +5°C° 0 mm 2 mps 652 mmHg 22%
    03:00 +5°C° 0 mm 2 mps 652 mmHg 22%
    04:00 +4°C° 0 mm 2 mps 652 mmHg 22%
    05:00 +4°C° 0 mm 2 mps 652 mmHg 22%
    06:00 +4°C° 0 mm 2 mps 653 mmHg 22%
    07:00 +4°C° 0 mm 2 mps 653 mmHg 21%
    08:00 +6°C° 0 mm 2 mps 654 mmHg 20%
    09:00 +8°C° 0 mm 2 mps 655 mmHg 19%
    10:00 +10°C° 0 mm 2 mps 655 mmHg 17%
    11:00 +10°C° 0 mm 2 mps 655 mmHg 19%
    12:00 +10°C° 0 mm 3 mps 655 mmHg 20%
    13:00 +10°C° 0 mm 3 mps 654 mmHg 21%
    14:00 +9°C° 0 mm 3 mps 654 mmHg 25%
    15:00 +9°C° 0 mm 3 mps 654 mmHg 28%
    16:00 +8°C° 0 mm 2 mps 654 mmHg 31%
    17:00 +7°C° 0 mm 2 mps 654 mmHg 34%
    18:00 +5°C° 0 mm 2 mps 654 mmHg 38%
    19:00 +4°C° 0 mm 2 mps 654 mmHg 41%
    20:00 +5°C° 0 mm 1 mps 654 mmHg 42%
    21:00 +4°C° 0 mm 1 mps 654 mmHg 44%
    22:00 +4°C° 0 mm 1 mps 654 mmHg 45%
    23:00 +3°C° 0 mm 1 mps 654 mmHg 46%

    22 January, Monday

    Time Temperature Precipitation Wind Pressure Humidity
    00:00 +3°C° 0 mm 1 mps 654 mmHg 48%
    01:00 +2°C° 0 mm 1 mps 654 mmHg 49%
    02:00 +2°C° 0 mm 1 mps 654 mmHg 50%
    03:00 +2°C° 0 mm 1 mps 653 mmHg 51%
    04:00 +1°C° 0 mm 1 mps 653 mmHg 52%
    05:00 +1°C° 0 mm 1 mps 653 mmHg 53%
    06:00 +1°C° 0 mm 1 mps 654 mmHg 53%
    07:00 +1°C° 0 mm 1 mps 654 mmHg 54%
    08:00 +2°C° 0 mm 1 mps 654 mmHg 49%
    09:00 +4°C° 0 mm 1 mps 655 mmHg 43%
    10:00 +5°C° 0 mm 2 mps 655 mmHg 38%
    11:00 +5°C° 0 mm 2 mps 655 mmHg 37%
    12:00 +6°C° 0 mm 2 mps 654 mmHg 36%
    13:00 +6°C° 0 mm 2 mps 654 mmHg 35%
    14:00 +6°C° 0 mm 2 mps 654 mmHg 37%
    15:00 +6°C° 0 mm 2 mps 654 mmHg 39%
    16:00 +6°C° 0 mm 1 mps 653 mmHg 41%
    17:00 +5°C° 0 mm 1 mps 653 mmHg 44%
    18:00 +4°C° 0 mm 1 mps 653 mmHg 48%
    19:00 +2°C° 0 mm 0 mps 653 mmHg 52%
    20:00 +2°C° 0 mm 0 mps 653 mmHg 52%
    21:00 +2°C° 0 mm 0 mps 653 mmHg 52%
    22:00 +1°C° 0 mm 0 mps 653 mmHg 53%
    23:00 +1°C° 0 mm 0 mps 653 mmHg 53%
    Show more